Temperature
9 9 9 9 8 8 8 8 7 7 7 7 6 6 6 6 6 6 5 5 5 4 4 4 3 3 3 3 3 2 2 2 2 2 2 3 3 2 3 3 3 3 3
8 8 8 8 8 7 7 7 7 7 6 6 6 6 6 6 5 5 5 5 4 4 4 3 3 3 2 2 2 2 2 2 1 1 2 2 2 2 2 2 2 3 3
8 8 8 7 7 7 7 7 6 6 6 6 5 5 5 5 5 5 4 4 4 3 3 3 3 2 2 2 2 1 1 1 1 1 1 1 1 1 1 1 2 2 2
7 7 7 7 7 6 6 6 6 5 5 5 5 5 4 4 4 4 4 3 3 3 3 2 2 2 1 1 1 1 1 1 1 0 0 0 0 0 0 0 1 1 1
7 6 6 6 6 6 6 5 5 5 5 4 4 4 4 4 4 3 3 3 2 2 2 2 1 1 1 1 0 0 0 0 -0 -0 -0 -0 -0 -0 -0 -0 -0 -0 0
6 6 6 6 5 5 5 5 4 4 4 4 4 3 3 3 3 3 2 2 2 1 1 1 1 1 0 0 0 -0 -0 -0 -1 -1 -1 -1 -1 -1 -1 -1 -1 -1 -1
5 5 5 5 5 4 4 4 4 3 3 3 3 3 3 2 2 2 2 1 1 1 1 1 0 0 -0 -0 -0 -0 -1 -1 -1 -1 -1 -1 -2 -2 -2 -1 -1 -1 -1
4 4 4 4 4 4 4 3 3 3 3 3 2 2 2 2 2 1 1 1 1 0 0 0 -0 -0 -1 -1 -1 -1 -1 -1 -1 -2 -2 -2 -2 -2 -2 -2 -2 -2 -1
4 3 3 3 3 3 3 3 2 2 2 2 2 2 1 1 1 1 1 0 -0 -0 -0 -0 -1 -1 -1 -1 -2 -2 -2 -1 -1 -2 -2 -2 -2 -2 -2 -2 -2 -2 -2
3 3 3 3 2 2 2 2 2 2 1 1 1 1 0 0 0 0 -0 -1 -1 -1 -1 -1 -1 -1 -1 -2 -2 -2 -2 -2 -2 -2 -2 -2 -2 -2 -2 -2 -2 -2 -2
3 2 2 2 2 2 1 1 1 1 1 1 0 0 -0 -0 -0 -1 -1 -2 -2 -2 -1 -1 -1 -2 -2 -2 -2 -2 -2 -2 -2 -2 -2 -2 -2 -2 -2 -2 -2 -2 -3
2 2 2 1 1 1 1 0 0 0 -0 -0 -0 -1 -1 -1 -1 -1 -2 -2 -2 -2 -2 -2 -2 -2 -2 -2 -2 -2 -3 -3 -3 -3 -3 -3 -3 -3 -3 -2 -2 -2 -3
1 1 1 1 0 0 -0 -0 -0 -1 -1 -1 -1 -2 -2 -2 -2 -2 -2 -2 -2 -3 -2 -2 -2 -2 -3 -3 -3 -3 -3 -3 -3 -4 -3 -3 -3 -3 -3 -3 -3 -3 -3
0 0 0 -0 -0 -1 -1 -1 -1 -1 -2 -2 -2 -3 -3 -3 -3 -3 -3 -3 -3 -3 -3 -3 -3 -3 -3 -3 -3 -3 -3 -4 -4 -4 -4 -4 -4 -4 -4 -4 -4 -3 -3
-0 -0 -1 -1 -1 -1 -1 -2 -2 -2 -2 -3 -3 -3 -3 -3 -3 -3 -3 -3 -3 -3 -3 -3 -3 -3 -3 -3 -3 -4 -4 -4 -4 -4 -4 -4 -4 -4 -4 -4 -4 -4 -4
-1 -1 -1 -2 -2 -2 -2 -2 -2 -2 -3 -3 -3 -3 -4 -4 -4 -4 -4 -4 -4 -4 -4 -4 -4 -4 -4 -4 -4 -4 -4 -4 -4 -5 -5 -5 -5 -5 -5 -4 -4 -4 -4
-2 -2 -2 -2 -2 -2 -3 -3 -3 -3 -3 -3 -3 -4 -4 -4 -4 -4 -4 -4 -4 -4 -4 -4 -5 -5 -5 -5 -5 -5 -5 -5 -5 -5 -5 -5 -5 -5 -5 -5 -5 -4 -4
-2 -2 -2 -3 -3 -3 -3 -3 -4 -4 -4 -4 -4 -4 -4 -4 -4 -4 -4 -4 -4 -5 -5 -5 -5 -5 -5 -5 -5 -5 -5 -5 -5 -5 -5 -5 -5 -5 -5 -5 -5 -5 -5
-2 -3 -3 -3 -3 -4 -4 -4 -4 -4 -5 -5 -4 -4 -4 -5 -5 -5 -5 -5 -5 -5 -5 -5 -5 -6 -6 -6 -6 -6 -6 -5 -5 -5 -6 -6 -5 -5 -5 -5 -5 -5 -5
-3 -3 -3 -4 -4 -4 -4 -5 -5 -5 -5 -5 -5 -5 -5 -5 -5 -5 -6 -6 -6 -6 -6 -6 -6 -6 -6 -6 -6 -6 -6 -6 -6 -6 -6 -6 -6 -6 -6 -6 -6 -6 -5
-4 -4 -4 -4 -4 -5 -5 -5 -5 -6 -6 -6 -6 -6 -6 -6 -6 -6 -6 -6 -6 -6 -6 -6 -6 -6 -6 -6 -6 -6 -6 -6 -6 -6 -6 -6 -6 -6 -6 -6 -6 -6 -6
-4 -4 -5 -5 -5 -5 -5 -6 -6 -6 -6 -6 -6 -6 -6 -6 -7 -7 -7 -6 -6 -7 -7 -7 -6 -6 -6 -6 -6 -6 -6 -6 -6 -6 -6 -6 -6 -6 -6 -6 -6 -6 -6
-5 -5 -5 -5 -5 -5 -6 -6 -6 -6 -6 -6 -6 -7 -7 -7 -7 -7 -7 -7 -7 -7 -7 -7 -7 -6 -6 -6 -6 -6 -6 -7 -7 -7 -7 -7 -7 -6 -7 -7 -7 -7 -7
-5 -6 -6 -6 -6 -6 -6 -6 -6 -6 -7 -7 -7 -7 -7 -7 -7 -7 -7 -7 -7 -7 -7 -7 -7 -7 -7 -7 -7 -7 -7 -7 -6 -7 -7 -7 -7 -6 -7 -7 -7 -7 -7
-6 -6 -6 -6 -6 -7 -7 -7 -7 -7 -7 -7 -7 -8 -8 -8 -8 -8 -7 -7 -7 -7 -7 -7 -7 -7 -7 -6 -6 -6 -7 -6 -6 -7 -7 -6 -6 -6 -7 -7 -7 -7 -7
-7 -7 -7 -7 -7 -7 -7 -7 -7 -7 -7 -8 -8 -8 -8 -8 -8 -8 -8 -8 -7 -7 -7 -7 -7 -7 -7 -6 -6 -6 -6 -6 -6 -6 -6 -6 -6 -6 -7 -7 -7 -7 -6
Wind_Speed
6 6 5 4 4 3 3 2 2 2 1 2 2 3 4 4 4 5 5 6 7 7 7 8 9 9 8 8 8 9 9 10 13 12 10 11 12 12 12 13 14 14 14
5 5 5 4 3 3 2 2 1 1 1 2 2 3 4 5 5 5 6 7 7 8 8 8 9 7 9 8 8 9 9 10 11 14 12 11 12 12 13 13 12 12 13
5 5 4 4 3 2 2 1 1 1 1 2 3 4 5 5 6 6 6 7 7 7 8 8 9 9 9 8 9 9 9 9 10 11 12 11 10 10 12 12 12 11 12
5 4 4 3 3 2 1 1 1 1 1 2 3 4 5 5 6 6 6 7 7 7 8 8 9 9 9 10 9 10 9 10 10 10 11 10 10 10 9 10 10 10 10
5 4 4 3 2 2 2 1 1 1 2 2 3 4 5 5 5 6 7 7 7 8 8 9 9 9 11 10 9 10 10 9 9 9 10 10 9 9 9 9 10 11 11
5 4 3 3 2 2 1 1 1 2 2 3 4 4 5 4 6 8 8 8 8 8 9 9 9 10 11 12 13 13 12 11 10 10 10 11 12 11 10 9 10 11 10
4 3 3 2 2 2 1 1 2 3 3 3 4 5 5 6 7 9 9 8 8 8 9 9 8 8 10 10 11 13 13 14 14 12 13 13 13 12 12 12 11 12 12
3 2 2 2 2 1 2 2 2 3 3 4 4 5 6 7 8 9 9 8 8 8 9 9 9 10 9 10 10 11 11 11 12 11 12 13 12 12 11 12 12 12 12
3 2 1 2 2 2 2 3 3 3 3 4 5 5 6 7 8 9 9 7 7 8 8 9 9 10 11 12 11 11 12 11 11 13 15 15 16 16 13 9 9 8 10
2 1 1 1 2 2 2 2 3 3 3 4 5 5 6 7 8 9 9 6 7 7 7 8 9 10 12 12 10 10 11 11 11 11 11 12 12 12 12 10 8 8 8
2 1 1 1 1 2 2 2 2 3 3 4 5 5 6 7 8 9 9 6 6 7 7 7 7 11 12 13 12 10 11 12 10 10 10 9 9 8 8 8 8 8 8
2 1 1 1 1 1 2 2 3 3 4 4 5 5 5 6 7 8 9 9 9 8 7 7 8 12 12 13 10 11 13 11 8 8 8 8 8 7 7 8 8 8 9
2 1 0 0 1 1 2 2 2 3 3 4 4 5 5 5 6 9 10 10 11 8 7 10 12 13 12 10 10 11 10 7 6 7 8 8 7 7 7 7 7 7 7
1 1 0 1 1 2 2 2 3 3 3 4 4 5 6 6 6 6 6 7 8 8 7 9 10 10 8 9 8 7 5 6 6 7 7 7 7 6 6 6 6 5 5
1 0 0 1 2 2 2 3 3 4 4 5 5 5 6 6 7 10 8 7 7 7 8 6 6 6 6 5 5 5 5 5 6 6 6 6 6 6 6 5 5 5 5
0 1 1 1 2 2 3 3 4 5 7 8 8 7 7 9 11 11 11 11 11 10 7 5 6 6 6 6 6 6 5 5 6 5 6 6 6 6 6 5 5 5 5
1 1 1 2 2 2 3 3 4 5 5 6 7 8 9 10 10 11 11 10 9 8 5 5 5 6 6 6 6 5 5 6 5 5 5 5 5 5 5 5 5 4 4
1 2 2 2 2 3 3 3 4 4 5 5 6 8 9 10 10 10 10 8 5 4 4 5 5 6 6 6 6 6 5 5 5 5 5 5 5 5 5 5 5 5 4
1 1 2 2 2 3 3 3 3 4 5 5 5 6 8 8 8 8 7 4 4 5 5 5 5 6 6 6 6 5 5 5 5 5 5 5 5 5 5 5 4 5 4
1 2 2 2 2 2 3 3 3 4 5 5 5 5 6 6 5 5 5 4 5 5 5 5 6 6 6 6 5 5 5 5 5 5 5 5 5 4 4 5 4 4 3
1 2 2 2 2 2 3 3 4 4 4 5 5 6 8 5 5 6 5 5 5 5 5 6 6 6 6 5 5 5 5 5 5 5 5 5 4 4 4 3 3 3 3
1 2 2 2 2 3 3 3 4 4 5 5 5 6 8 5 5 5 5 5 5 5 5 6 6 6 5 5 5 5 5 5 5 5 5 4 4 4 4 3 3 3 2
1 2 2 2 2 3 4 3 4 4 5 5 5 5 5 5 5 5 6 6 6 6 5 5 5 5 5 5 5 5 5 5 5 5 5 4 4 4 3 3 3 3 2
2 2 2 2 3 3 3 4 4 4 5 5 5 5 5 5 6 6 6 6 6 6 6 5 5 6 7 6 5 5 5 6 6 5 5 4 4 3 3 2 2 2 1
2 2 2 2 3 3 3 4 4 4 5 5 5 5 5 6 6 6 6 6 6 6 7 6 5 5 6 7 7 6 7 8 8 6 4 3 3 3 2 2 1 1 1
2 2 2 2 3 3 3 4 4 5 5 5 5 5 5 6 6 6 6 5 6 6 6 6 6 7 8 7 7 7 8 8 8 7 5 2 2 1 1 1 1 0 0
Wind_Direction
170 170 168 165 165 170 176 182 182 192 216 245 262 274 277 278 278 276 273 273 271 271 269 266 267 268 266 261 259 259 258 260 270 279 283 287 286 286 288 289 288 287 284
163 161 158 154 159 166 167 174 181 196 247 271 284 284 284 282 281 278 276 275 274 274 274 272 273 274 275 272 266 264 263 263 268 277 284 288 288 287 289 289 289 289 287
156 153 152 155 158 161 163 172 196 219 281 296 292 287 286 285 285 283 280 279 279 278 276 275 276 276 275 277 275 271 270 271 268 274 282 287 292 289 291 290 289 288 290
157 154 157 161 160 157 158 183 235 268 291 300 293 290 288 289 288 289 286 285 282 280 278 275 275 274 275 279 279 277 275 274 273 275 280 285 288 292 292 293 294 294 293
160 161 162 162 160 160 173 195 234 274 287 288 291 293 293 294 293 296 296 292 287 282 280 276 275 275 274 275 277 282 279 274 276 278 281 286 288 293 291 294 291 294 294
160 162 162 165 166 174 192 220 260 280 284 288 292 294 298 298 302 302 298 289 286 280 280 280 279 276 276 276 275 278 276 273 275 276 278 280 282 286 290 290 291 293 294
156 159 162 166 176 197 209 234 258 272 282 289 293 296 298 301 304 304 303 294 287 283 281 283 283 282 281 281 280 278 274 269 266 270 273 275 281 285 287 287 285 285 286
150 157 160 171 191 217 242 254 263 272 282 290 296 298 301 306 309 308 306 297 288 284 280 280 281 281 282 285 284 281 278 274 270 268 270 275 278 282 281 280 281 284 286
152 157 163 183 204 224 245 261 269 274 284 293 298 298 299 304 311 311 310 301 292 290 286 281 281 281 284 286 284 282 282 282 278 275 276 279 282 281 280 281 282 283 288
168 172 185 210 226 240 253 266 273 277 284 296 296 295 296 300 307 309 310 304 299 296 293 287 281 284 290 291 284 283 284 289 292 289 284 284 282 281 279 270 269 275 287
165 172 203 228 245 258 271 274 278 284 290 293 293 295 297 298 302 308 313 308 302 298 294 294 292 297 296 292 288 283 285 291 288 286 285 286 285 283 282 280 274 267 272
158 174 201 261 290 280 275 285 290 290 291 294 296 299 301 303 305 309 313 311 309 300 296 296 299 304 302 298 292 290 293 293 287 286 285 286 290 292 292 291 286 281 275
152 159 131 346 314 288 279 285 292 289 288 294 296 299 305 309 308 309 309 310 310 306 298 298 301 302 302 298 295 293 291 286 284 285 286 290 293 292 293 294 296 295 292
159 154 47 339 315 303 296 284 283 285 287 290 294 298 302 304 306 311 310 309 308 307 302 299 297 296 295 294 297 295 288 283 283 282 288 294 298 297 294 297 300 307 306
149 147 331 309 292 293 294 290 288 287 290 290 291 293 297 299 308 314 313 310 311 308 308 301 300 302 303 303 302 301 298 296 293 290 293 298 300 300 300 302 300 302 297
194 284 288 284 287 287 292 299 293 290 301 301 301 301 299 301 309 313 313 312 313 313 309 298 302 303 302 303 305 305 302 300 299 297 294 293 296 300 303 306 305 302 300
237 256 271 274 278 282 287 291 301 305 303 305 308 312 312 314 315 317 317 315 314 318 312 307 308 308 304 302 301 300 299 300 299 297 296 297 298 299 300 303 304 305 306
259 256 267 268 275 280 285 289 294 300 308 312 312 316 320 322 322 323 323 320 315 320 310 307 306 308 308 304 301 301 300 302 301 300 300 299 299 300 302 303 302 305 308
270 274 278 281 281 283 288 292 293 295 299 305 311 316 323 323 321 323 325 318 311 309 308 306 305 305 305 305 301 299 298 297 300 301 301 303 303 303 304 306 306 311 314
281 292 297 287 284 286 289 289 291 294 299 303 308 315 322 322 321 321 321 315 306 302 303 304 304 303 304 305 304 302 302 302 305 304 306 307 307 307 305 306 308 311 314
292 288 298 296 289 289 289 289 291 293 297 301 305 310 318 312 309 309 311 310 307 304 304 303 301 300 301 303 302 302 303 305 308 309 309 310 311 311 309 308 311 310 311
296 293 291 289 290 290 293 293 293 295 298 301 306 308 312 310 306 307 309 310 309 306 303 300 298 298 298 299 300 301 302 303 307 308 309 310 309 308 308 308 310 313 315
295 293 292 294 295 297 298 298 299 299 301 303 306 309 310 309 308 308 310 311 311 310 307 302 298 300 302 300 297 293 291 294 299 302 305 308 309 308 308 309 308 313 316
289 285 288 294 299 297 298 302 302 302 303 305 307 307 308 308 308 310 312 311 312 312 312 309 304 304 306 306 303 298 293 294 299 301 298 294 302 307 310 312 312 314 323
291 288 291 298 302 302 302 304 304 304 304 305 306 308 308 309 311 313 314 314 315 314 316 314 310 311 313 314 310 306 307 310 309 308 301 294 297 299 306 311 315 321 336
301 299 301 303 301 301 302 303 303 304 303 304 305 305 306 307 309 312 315 317 318 317 318 317 318 318 317 315 312 313 317 319 320 315 309 305 302 301 309 303 308 338 18
Height
1453 1454 1456 1457 1459 1460 1460 1461 1461 1462 1462 1462 1461 1461 1460 1459 1457 1456 1454 1452 1451 1449 1447 1446 1444 1443 1441 1440 1438 1437 1435 1433 1429 1425 1424 1421 1419 1416 1413 1410 1408 1405 1402
1450 1451 1453 1454 1456 1457 1457 1458 1458 1458 1458 1458 1457 1457 1456 1454 1453 1451 1449 1447 1445 1443 1442 1440 1438 1437 1435 1433 1432 1430 1428 1426 1424 1419 1416 1414 1412 1409 1406 1403 1400 1398 1395
1447 1449 1450 1452 1453 1453 1454 1454 1455 1454 1454 1454 1454 1453 1451 1450 1448 1446 1444 1442 1440 1438 1436 1434 1432 1431 1429 1427 1425 1423 1422 1420 1417 1414 1410 1408 1405 1403 1400 1396 1394 1391 1388
1445 1446 1447 1449 1450 1450 1451 1451 1451 1451 1451 1450 1449 1448 1447 1445 1443 1440 1438 1436 1434 1432 1430 1428 1426 1424 1422 1420 1418 1416 1415 1413 1410 1407 1404 1401 1399 1396 1394 1390 1387 1384 1382
1442 1443 1445 1446 1446 1447 1448 1448 1448 1448 1447 1446 1445 1444 1442 1439 1437 1435 1433 1431 1428 1426 1424 1422 1420 1418 1416 1414 1412 1410 1409 1406 1404 1401 1398 1395 1392 1390 1388 1385 1382 1378 1375
1439 1441 1442 1442 1443 1444 1444 1445 1445 1444 1443 1442 1441 1439 1436 1434 1432 1430 1428 1425 1423 1420 1418 1416 1414 1412 1409 1407 1406 1404 1403 1400 1398 1396 1393 1390 1387 1385 1383 1380 1377 1374 1369
1437 1438 1439 1440 1440 1441 1441 1441 1440 1440 1439 1437 1436 1434 1431 1429 1427 1425 1422 1420 1417 1414 1412 1410 1407 1405 1403 1401 1399 1397 1396 1394 1393 1391 1387 1384 1382 1380 1377 1374 1372 1369 1365
1435 1435 1436 1437 1437 1437 1437 1437 1436 1436 1435 1433 1431 1429 1427 1424 1422 1419 1417 1414 1411 1409 1406 1404 1402 1399 1397 1395 1393 1391 1389 1387 1386 1384 1381 1378 1376 1374 1372 1369 1367 1363 1360
1432 1433 1434 1434 1434 1434 1434 1433 1432 1431 1430 1429 1427 1424 1422 1419 1417 1414 1412 1408 1406 1403 1401 1399 1397 1394 1392 1390 1388 1385 1383 1381 1380 1378 1375 1372 1370 1368 1366 1364 1361 1359 1354
1431 1431 1431 1432 1431 1431 1430 1430 1429 1428 1426 1424 1422 1420 1417 1415 1412 1410 1407 1404 1401 1398 1396 1394 1391 1389 1387 1385 1383 1380 1377 1375 1373 1370 1368 1366 1364 1362 1360 1358 1356 1353 1350
1428 1429 1429 1429 1429 1428 1427 1426 1425 1424 1422 1420 1417 1415 1413 1410 1408 1405 1402 1400 1397 1394 1391 1389 1386 1384 1382 1380 1378 1375 1372 1370 1367 1365 1362 1360 1358 1356 1354 1352 1350 1348 1346
1426 1426 1426 1426 1425 1425 1424 1423 1421 1420 1418 1415 1413 1411 1408 1406 1403 1400 1398 1395 1393 1390 1387 1384 1382 1379 1377 1374 1372 1369 1367 1365 1362 1360 1357 1354 1352 1350 1348 1346 1344 1343 1341
1423 1423 1423 1423 1422 1422 1421 1419 1418 1416 1414 1412 1409 1407 1404 1402 1399 1397 1394 1391 1388 1386 1383 1380 1377 1374 1372 1369 1366 1364 1362 1359 1357 1355 1352 1350 1347 1345 1343 1340 1339 1337 1335
1420 1421 1420 1420 1420 1419 1418 1417 1415 1413 1411 1408 1406 1404 1401 1398 1396 1393 1390 1387 1384 1381 1378 1375 1373 1370 1367 1364 1362 1359 1357 1355 1352 1350 1348 1345 1343 1340 1338 1336 1334 1332 1330
1418 1418 1418 1418 1417 1416 1415 1413 1412 1410 1408 1406 1403 1401 1398 1395 1392 1390 1387 1383 1380 1377 1374 1371 1368 1365 1362 1360 1357 1355 1353 1351 1349 1346 1344 1341 1339 1337 1335 1333 1331 1329 1327
1416 1416 1416 1415 1414 1413 1412 1410 1408 1406 1404 1402 1399 1397 1394 1392 1388 1385 1382 1379 1376 1373 1370 1367 1364 1361 1359 1356 1354 1351 1349 1347 1345 1343 1340 1338 1336 1334 1331 1330 1328 1326 1324
1414 1414 1413 1413 1412 1410 1409 1407 1404 1402 1400 1398 1395 1393 1390 1387 1384 1381 1378 1375 1372 1370 1367 1364 1361 1358 1356 1353 1351 1348 1346 1344 1342 1340 1337 1335 1333 1331 1329 1327 1325 1323 1321
1412 1411 1411 1410 1409 1407 1406 1404 1402 1399 1396 1393 1392 1389 1386 1383 1380 1377 1374 1372 1369 1366 1364 1361 1359 1356 1353 1351 1348 1346 1344 1341 1339 1337 1335 1333 1331 1329 1327 1325 1323 1321 1320
1409 1409 1408 1407 1406 1404 1403 1401 1399 1396 1394 1391 1388 1385 1383 1380 1377 1374 1371 1369 1366 1364 1361 1359 1356 1354 1351 1348 1346 1343 1341 1339 1337 1335 1332 1331 1329 1327 1325 1323 1321 1320 1318
1407 1406 1405 1404 1403 1401 1400 1398 1396 1394 1391 1388 1385 1383 1380 1377 1374 1371 1369 1366 1364 1361 1359 1356 1354 1351 1349 1346 1343 1341 1339 1337 1335 1332 1330 1328 1327 1325 1323 1322 1320 1318 1317
1404 1403 1402 1401 1400 1398 1397 1395 1393 1391 1388 1386 1383 1381 1378 1375 1372 1370 1367 1364 1361 1359 1356 1354 1351 1349 1346 1344 1342 1339 1337 1335 1333 1331 1329 1327 1325 1323 1322 1320 1319 1318 1316
1401 1400 1399 1398 1397 1395 1394 1392 1390 1388 1386 1383 1381 1378 1376 1373 1370 1367 1365 1362 1359 1356 1354 1351 1349 1347 1344 1342 1340 1338 1335 1333 1331 1329 1327 1325 1324 1322 1321 1319 1318 1317 1316
1398 1397 1396 1395 1394 1393 1391 1389 1387 1385 1383 1380 1378 1376 1373 1370 1368 1365 1362 1360 1357 1354 1351 1349 1346 1344 1342 1340 1339 1336 1334 1332 1330 1328 1326 1324 1322 1321 1319 1318 1317 1316 1315
1395 1394 1393 1392 1391 1390 1388 1386 1384 1382 1380 1378 1375 1373 1371 1368 1365 1363 1360 1357 1354 1352 1350 1347 1345 1343 1341 1339 1337 1335 1333 1331 1329 1327 1325 1323 1321 1320 1318 1317 1317 1316 1316
1393 1392 1391 1389 1388 1387 1385 1383 1382 1379 1377 1375 1373 1371 1368 1366 1363 1361 1358 1355 1353 1350 1348 1346 1343 1341 1339 1337 1335 1333 1331 1329 1328 1326 1324 1322 1321 1319 1318 1317 1317 1317 1317
1390 1389 1388 1387 1385 1384 1382 1381 1379 1377 1375 1373 1371 1368 1366 1363 1361 1359 1356 1354 1351 1349 1347 1345 1342 1340 1338 1336 1334 1332 1330 1328 1327 1325 1323 1322 1321 1320 1319 1318 1318 1318 1318